STARLINK-32837, 62812

Orbit data source: Space-Track

STARLINK-32837, 62812 is a payload satellite owned by SpaceX/Seattle (US) in LEO that was launched on Fri, 24 Jan 2025 UTC via an FALCON 9 launch vehicle from the Air Force Western Test Range (AFWTR). Payload-class satellites include a variety of spacecraft equipped with specific instruments for various scientific and technological missions. These include communications satellites like Starlink; space stations such as the ISS; scientific satellites like the Hubble; Earth observation satellites from companies like Planet Labs, Umbra, and HawkEye 360; GPS; miniature CubeSats for education and research; and military/defense satellites.

Loading next visibility...
Identifier
62812, 2025-018G
Orbit
LEO
Last TLE update
5 hours ago
Origin
Manufacturer
SpaceX/Seattle
Mission
Operational Commercial Communications
Bus & Motor
STARLINK V2M, Unknown motor
Mass
730 kg wet, ~700 kg dry
Launch date (UTC)
2025-01-24 (5 months ago)
Launch vehicle
FALCON 9
Launch site
Air Force Western Test Range (AFWTR)
Object type
Payload
Rocket body
Debris
Shape & HBR
Box + 2 Pan, 29 m
Radar Cross Section
33.884 m², Large (>1 m²)

Expand to show TLE details & history

TLE from 5 hours ago
0 STARLINK-32837
1 62812U 25018G   25182.83582152  .00012576  00000-0  43601-3 0  9995
2 62812  53.1614  34.6512 0001131  85.9777 274.1353 15.30198541 25718
Epoch: 2025-07-01T20:03Z
TLE epoch observation values (Epoch: 2025-07-01T20:03:34.979Z)
Latitude
-0.00002°
Longitude
173.62987°
Altitude
476.063 km
Speed
7.629 km/s
True Right ascension
02h 18m 36s
True Declination
0° 00' 00"
Sunlit
Object was in daylight at epoch
Visualization orbit readout
Latitude
24.67483°
Longitude
-27.42073°
Altitude
475.782 km
Speed
7.632 km/s
Apparent Right ascension
12h 14m 23s
Apparent Declination
-42° 02' 52"
Sunlit
Object is in daylight
Visualization observer readout
Local Sidereal Time
13:05:27
Azimuth
189.521° SSW
Elevation
7.222°
Doppler factor
1
Orbital elements
Apogee altitude
476.251 km
Perigee altitude
474.7 km
Semi-major axis
6,853.613 km
Eccentricity
0.00011
Inclination
53.1614°
RAAN
34.6512°
Arg. of periapsis
85.9777°
True anomaly
Unknown
Mean anomaly
274.1353°
Eccentric anomaly
Unknown
Mean motion
3.82529 °/min
Orbital period
94.11 mins
BSTAR
0.00043601
Loading maneuver chart data...
Loading SW <> Apogee altitude chart data...
Loading historical data...
Loading historical data...
Loading historical data...
Loading historical data...
Loading historical data...
Loading historical data...
Loading historical data...

STARLINK-32837 Visibility forecast

Observer location: undefined°, undefined°

Span
Click to sort rows by Start time (UTC) header in descending order
Start Az.
Max El. time (UTC)
Max El. Az.
Max El.
End time (UTC)
End Az.
6 mins2025-07-02 16:36:32.640Z217.806° SW2025-07-02 16:39:32.640Z143.833° SSE42.321°2025-07-02 16:42:32.640Z56.758° ENE
4 mins2025-07-02 18:16:32.640Z306.34° NW2025-07-02 18:17:32.640Z328.729° NNW19.958°2025-07-02 18:20:32.640Z25.555° NE
5 mins2025-07-02 23:12:32.640Z325.562° NNW2025-07-02 23:14:32.640Z30.208° NE39.324°2025-07-02 23:17:32.640Z112.948° SE
|